Es liegt ein Kommunikationsproblem . Gehen Sie direkt zur Website Meteoalarm : www.meteoalarm.eu und ├╝berpr├╝fen Sie die Wetterwarnungen..

Webcam Vorhersage DWD Regenradar Wetterlage NRW Blitze Wind GFS-Modell
webcam


Kleve -D├╝ffelward more information Kleve -D├╝ffelward


Goch more information Goch


Thunder radar more information blitzortung!


Weitere Templates dieser Seite und andere Webseiten:

Meteotemplate

Awekas - Template

weather34 - Template

Wetter aus Willich

Hubert Reyers' Wetter


te
World Weather Websites
 

METAR-Meldungen aus der Umgebung

   
EHDL - Nijmegen
Aktualisierung: 27-11-2022 16:55
Leichter Nieselregen, Bew├Âlkt  
Leichter Nieselregen, Bew├Âlkt  
   Wind: SSO 13 km/h
Wind: SSO 13 km/h
Temperatur: 7°C
Gef├╝hlt: 4°C
Taupunkt: 5°C
Luftfeuchte: 87%
Luftdruck: 1015 hPa
Bew├Âlkt: Bew├Âlkt
Sichtbarkeit: More than 10 km
Bew├Âlkung: leicht bew├Âlkt 2000 ft,
Bew├Âlkt 2700 ft
EHDL 271555Z AUTO 15007KT 100V200 9999 -DZ FEW020 OVC027 07/05 Q1015 BLU
EHDL - Arnhem
Aktualisierung: 27-11-2022 16:55
Leichter Nieselregen, Bew├Âlkt  
Leichter Nieselregen, Bew├Âlkt  
   Wind: SSO 13 km/h
Wind: SSO 13 km/h
Temperatur: 7°C
Gef├╝hlt: 4°C
Taupunkt: 5°C
Luftfeuchte: 87%
Luftdruck: 1015 hPa
Bew├Âlkt: Bew├Âlkt
Sichtbarkeit: More than 10 km
Bew├Âlkung: leicht bew├Âlkt 2000 ft,
Bew├Âlkt 2700 ft
EHDL 271555Z AUTO 15007KT 100V200 9999 -DZ FEW020 OVC027 07/05 Q1015 BLU
EHAM - Amsterdam
Aktualisierung: 27-11-2022 16:55
Stark bew├Âlkt  
Stark bew├Âlkt  
   Wind: S├╝den 18.5 km/h
Wind: S├╝den 18.5 km/h
Temperatur: 7°C
Gef├╝hlt: 4°C
Taupunkt: 6°C
Luftfeuchte: 93%
Luftdruck: 1014 hPa
Bew├Âlkt: Stark bew├Âlkt
Sichtbarkeit: More than 10 km
Bew├Âlkung: leicht bew├Âlkt 700 ft,
Teilweise bew├Âlkt 800 ft,
Stark bew├Âlkt 1200 ft
EHAM 271555Z 17010KT 9999 FEW007 SCT008 BKN012 07/06 Q1014 TEMPO 6000 -DZ BKN008
EHDL - Ede
Aktualisierung: 27-11-2022 16:55
Leichter Nieselregen, Bew├Âlkt  
Leichter Nieselregen, Bew├Âlkt  
   Wind: SSO 13 km/h
Wind: SSO 13 km/h
Temperatur: 7°C
Gef├╝hlt: 4°C
Taupunkt: 5°C
Luftfeuchte: 87%
Luftdruck: 1015 hPa
Bew├Âlkt: Bew├Âlkt
Sichtbarkeit: More than 10 km
Bew├Âlkung: leicht bew├Âlkt 2000 ft,
Bew├Âlkt 2700 ft
EHDL 271555Z AUTO 15007KT 100V200 9999 -DZ FEW020 OVC027 07/05 Q1015 BLU
EHDL - Emmen
Aktualisierung: 27-11-2022 16:55
Leichter Nieselregen, Bew├Âlkt  
Leichter Nieselregen, Bew├Âlkt  
   Wind: SSO 13 km/h
Wind: SSO 13 km/h
Temperatur: 7°C
Gef├╝hlt: 4°C
Taupunkt: 5°C
Luftfeuchte: 87%
Luftdruck: 1015 hPa
Bew├Âlkt: Bew├Âlkt
Sichtbarkeit: More than 10 km
Bew├Âlkung: leicht bew├Âlkt 2000 ft,
Bew├Âlkt 2700 ft
EHDL 271555Z AUTO 15007KT 100V200 9999 -DZ FEW020 OVC027 07/05 Q1015 BLU
EHAM - Den Haag
Aktualisierung: 27-11-2022 16:55
Stark bew├Âlkt  
Stark bew├Âlkt  
   Wind: S├╝den 18.5 km/h
Wind: S├╝den 18.5 km/h
Temperatur: 7°C
Gef├╝hlt: 4°C
Taupunkt: 6°C
Luftfeuchte: 93%
Luftdruck: 1014 hPa
Bew├Âlkt: Stark bew├Âlkt
Sichtbarkeit: More than 10 km
Bew├Âlkung: leicht bew├Âlkt 700 ft,
Teilweise bew├Âlkt 800 ft,
Stark bew├Âlkt 1200 ft
EHAM 271555Z 17010KT 9999 FEW007 SCT008 BKN012 07/06 Q1014 TEMPO 6000 -DZ BKN008
EHAM - Apeldoorn
Aktualisierung: 27-11-2022 16:55
Stark bew├Âlkt  
Stark bew├Âlkt  
   Wind: S├╝den 18.5 km/h
Wind: S├╝den 18.5 km/h
Temperatur: 7°C
Gef├╝hlt: 4°C
Taupunkt: 6°C
Luftfeuchte: 93%
Luftdruck: 1014 hPa
Bew├Âlkt: Stark bew├Âlkt
Sichtbarkeit: More than 10 km
Bew├Âlkung: leicht bew├Âlkt 700 ft,
Teilweise bew├Âlkt 800 ft,
Stark bew├Âlkt 1200 ft
EHAM 271555Z 17010KT 9999 FEW007 SCT008 BKN012 07/06 Q1014 TEMPO 6000 -DZ BKN008
EHAM - Leeuwarden
Aktualisierung: 27-11-2022 16:55
Stark bew├Âlkt  
Stark bew├Âlkt  
   Wind: S├╝den 18.5 km/h
Wind: S├╝den 18.5 km/h
Temperatur: 7°C
Gef├╝hlt: 4°C
Taupunkt: 6°C
Luftfeuchte: 93%
Luftdruck: 1014 hPa
Bew├Âlkt: Stark bew├Âlkt
Sichtbarkeit: More than 10 km
Bew├Âlkung: leicht bew├Âlkt 700 ft,
Teilweise bew├Âlkt 800 ft,
Stark bew├Âlkt 1200 ft
EHAM 271555Z 17010KT 9999 FEW007 SCT008 BKN012 07/06 Q1014 TEMPO 6000 -DZ BKN008
TNCC - Willemstad
Aktualisierung: 27-11-2022 17:00
Teilweise bew├Âlkt  
Teilweise bew├Âlkt  
   Wind: Osten 22.2 km/h
Wind: Osten 22.2 km/h
Temperatur: 29°C
Hitzeindex: 33°C
Taupunkt: 23°C
Luftfeuchte: 70%
Luftdruck: 1014 hPa
Bew├Âlkt: Teilweise bew├Âlkt
Sichtbarkeit: More than 10 km
Bew├Âlkung: Teilweise bew├Âlkt 2200 ft
TNCC 271600Z 08012KT 9999 SCT022 29/23 Q1014 NOSIG
EHEH - Eindhoven
Aktualisierung: 27-11-2022 16:55
Leichter Nieselregen, Bew├Âlkt  
Leichter Nieselregen, Bew├Âlkt  
   Wind: SO 13 km/h
Wind: SO 13 km/h
Temperatur: 7°C
Gef├╝hlt: 4°C
Taupunkt: 6°C
Luftfeuchte: 93%
Luftdruck: 1015 hPa
Bew├Âlkt: Bew├Âlkt
Sichtbarkeit: More than 10 km
Bew├Âlkung: Bew├Âlkt 3100 ft
EHEH 271555Z AUTO 14007KT 080V180 9999 -DZ OVC031 07/06 Q1015 REDZ BLU NOSIG
EHAM - Middelburg
Aktualisierung: 27-11-2022 16:55
Stark bew├Âlkt  
Stark bew├Âlkt  
   Wind: S├╝den 18.5 km/h
Wind: S├╝den 18.5 km/h
Temperatur: 7°C
Gef├╝hlt: 4°C
Taupunkt: 6°C
Luftfeuchte: 93%
Luftdruck: 1014 hPa
Bew├Âlkt: Stark bew├Âlkt
Sichtbarkeit: More than 10 km
Bew├Âlkung: leicht bew├Âlkt 700 ft,
Teilweise bew├Âlkt 800 ft,
Stark bew├Âlkt 1200 ft
EHAM 271555Z 17010KT 9999 FEW007 SCT008 BKN012 07/06 Q1014 TEMPO 6000 -DZ BKN008
EHAM - Delfzijl
Aktualisierung: 27-11-2022 16:55
Stark bew├Âlkt  
Stark bew├Âlkt  
   Wind: S├╝den 18.5 km/h
Wind: S├╝den 18.5 km/h
Temperatur: 7°C
Gef├╝hlt: 4°C
Taupunkt: 6°C
Luftfeuchte: 93%
Luftdruck: 1014 hPa
Bew├Âlkt: Stark bew├Âlkt
Sichtbarkeit: More than 10 km
Bew├Âlkung: leicht bew├Âlkt 700 ft,
Teilweise bew├Âlkt 800 ft,
Stark bew├Âlkt 1200 ft
EHAM 271555Z 17010KT 9999 FEW007 SCT008 BKN012 07/06 Q1014 TEMPO 6000 -DZ BKN008

Script entwickelt von  Saratoga-weather.org Angepasst f├╝r das Template von  Weerstation Leuven

Sie finden Wetter-Infos dieser Station auch auf:

UK Metoffice

European Weather Network

WeatherCloud

Weather Underground

AWEKAS

Neuwetter

Wettersektor

Von uns verwendete Ausr├╝stung:

Wetterstation
Davis VP2

Wetterprogramm
Meteobridge

WetterComputer
Computer

Anbieter
My provider

Davis VP2

Meteobridge

Computer

My provider